Theta_e
359 359 361 359 361 362 365 361 360 363 362 357 358 356 353 355 347 345 345 350 346 350 349 346 357 363 363 365 361 362 363 363 359 359 363 362 362 355 352 353 353 353 352 351 351 352 353 356 358 358 358 359 360 361 361 360 354 349 344 340 337 337 337 336 335 334 334 334 334 336 338 340 340 340
364 361 361 361 361 365 362 361 361 365 365 359 359 358 360 360 354 351 346 348 348 346 349 350 350 359 363 360 359 359 359 363 360 360 362 360 356 354 351 353 353 353 350 349 348 349 351 353 352 352 352 352 353 356 358 359 356 350 346 342 339 336 338 336 335 335 334 334 334 335 337 338 339 339
363 362 360 363 360 364 364 364 361 366 367 364 362 361 363 362 361 357 353 347 350 350 347 353 354 353 360 357 357 357 359 360 358 361 365 364 360 356 368 358 354 351 349 347 346 347 347 346 345 346 349 350 351 353 354 356 356 353 348 344 340 337 337 336 336 335 334 334 334 335 336 337 337 338
364 365 362 363 362 364 366 365 364 364 368 368 364 365 365 363 363 361 357 353 350 355 352 356 355 357 357 359 359 359 357 360 361 362 361 364 360 362 356 354 351 352 348 346 345 344 343 341 342 345 347 348 350 352 353 354 355 354 350 345 342 338 336 335 336 335 335 335 335 334 335 336 337 337
366 367 364 364 364 367 365 366 365 363 362 365 363 365 364 362 364 362 360 353 353 358 360 356 357 356 358 355 360 358 355 356 358 358 361 362 356 355 354 352 350 347 347 345 343 343 342 340 340 343 346 348 349 351 352 352 353 352 350 346 340 336 336 334 337 336 335 335 335 334 334 335 336 337
364 366 365 363 364 368 367 364 363 361 358 358 357 359 360 360 361 364 360 357 354 350 353 356 360 357 358 353 360 358 357 357 362 357 359 356 354 354 355 353 348 342 349 345 344 343 341 340 339 342 344 346 347 347 347 347 346 348 349 344 337 334 333 334 334 337 335 335 334 335 334 334 335 336
366 364 364 364 364 362 362 364 362 361 362 362 362 361 362 363 362 363 364 361 356 355 355 359 357 357 358 357 357 359 358 362 359 360 356 353 350 352 351 350 347 344 346 346 345 342 341 341 340 340 340 344 344 343 342 341 340 343 342 337 335 333 333 331 334 336 335 334 335 334 334 333 334 335
363 362 363 362 363 365 363 362 362 359 361 362 364 362 363 364 360 361 362 362 360 358 355 359 357 358 357 357 360 358 358 355 357 358 359 357 353 354 352 350 347 345 346 346 342 342 342 341 340 340 340 340 338 338 337 336 336 335 336 335 334 331 330 328 328 333 334 333 333 334 333 333 333 333
364 363 362 361 363 364 361 362 360 361 363 363 361 360 361 361 361 361 361 361 361 358 356 356 360 361 359 358 359 359 355 354 355 358 358 356 354 357 355 350 347 344 341 343 342 341 343 344 342 341 341 339 338 337 336 335 333 333 332 329 329 330 328 326 326 327 330 330 329 330 332 332 332 332
365 364 364 365 362 360 359 359 361 362 359 359 358 360 361 359 359 360 360 360 360 359 357 357 354 358 353 355 359 360 360 354 352 355 357 357 356 358 355 354 352 350 350 353 354 346 345 341 336 341 343 341 338 337 336 336 333 330 327 324 326 330 326 324 324 323 323 326 325 326 329 331 331 331
363 363 362 363 361 360 361 359 360 361 361 359 359 360 361 361 360 358 358 357 357 357 355 353 353 351 353 355 351 356 360 364 361 355 352 353 357 358 359 360 361 360 358 356 349 350 349 347 350 345 340 339 338 336 335 334 332 329 326 322 322 323 323 324 322 320 320 323 323 323 323 325 329 330
360 360 360 358 360 362 363 362 363 363 361 362 362 362 362 362 361 359 357 357 356 355 353 350 349 351 353 354 356 355 356 353 354 353 351 350 354 358 363 362 358 361 364 360 355 350 349 349 347 338 338 339 338 336 336 338 338 333 328 325 327 326 322 322 321 320 319 319 320 321 322 322 325 327
362 360 359 358 357 361 360 364 367 367 366 360 359 361 363 363 360 360 359 357 356 356 353 352 354 351 350 352 351 346 347 347 347 352 355 355 357 356 356 359 362 362 358 358 356 359 361 358 358 359 360 362 361 357 343 351 343 334 328 326 329 328 324 322 321 320 319 318 318 319 321 320 320 323
359 359 359 357 357 362 363 366 368 365 361 361 362 363 364 362 362 360 359 357 355 354 353 351 349 346 345 344 348 346 348 349 351 349 353 351 353 357 357 360 362 363 361 359 362 364 364 360 360 361 360 359 370 360 365 362 352 341 329 330 329 328 326 322 320 319 318 317 317 317 318 319 319 319
360 360 360 361 360 368 369 368 364 363 363 363 361 359 361 363 364 361 357 355 356 353 350 350 349 346 347 349 351 349 345 345 347 348 353 352 353 354 353 351 359 366 365 364 362 363 367 367 361 362 361 360 360 357 360 343 343 338 334 332 331 329 328 326 322 320 318 318 317 316 316 317 318 317
361 360 359 359 357 359 361 364 367 370 367 361 362 361 360 361 360 359 362 361 359 358 353 351 350 348 348 348 351 346 345 348 351 356 357 357 356 355 353 353 352 361 365 361 361 360 366 364 360 361 360 359 359 356 351 342 340 336 334 333 330 328 327 327 326 323 320 319 320 319 318 317 319 318
363 364 362 360 358 356 365 362 363 368 368 369 361 359 359 360 356 345 344 348 361 363 361 358 354 354 353 353 354 355 358 365 360 361 355 356 355 356 354 353 353 359 367 362 359 355 361 364 358 355 357 359 361 359 345 340 340 336 334 332 330 329 328 327 326 325 323 321 319 317 317 318 318 317
363 365 365 363 362 365 367 369 367 369 368 368 369 371 371 371 369 358 345 342 343 352 358 360 358 362 365 361 364 367 369 365 361 358 356 360 357 357 357 361 361 364 363 361 359 357 359 360 356 356 360 359 362 363 352 335 338 338 335 332 330 328 327 327 325 324 323 322 320 317 315 315 315 316
363 364 364 365 363 366 369 370 365 364 364 366 364 365 364 364 364 367 364 365 363 361 357 360 361 363 364 366 366 367 368 365 365 362 363 364 363 362 364 363 364 363 366 362 358 352 357 361 356 355 359 358 362 363 348 339 339 337 334 332 330 327 327 327 326 324 323 322 320 318 316 314 313 314
369 367 366 367 366 366 368 345 343 350 360 360 361 361 363 364 361 359 362 350 354 362 360 361 360 360 360 345 359 359 356 358 360 359 358 359 360 358 354 352 354 352 357 359 355 351 355 361 354 356 359 360 360 363 365 343 339 338 335 333 329 326 325 326 326 324 323 322 320 318 316 313 312 312
366 367 365 366 365 364 355 333 325 331 347 360 361 362 361 360 360 360 360 348 339 338 336 334 334 333 332 332 330 329 330 345 350 353 351 351 353 351 349 351 351 351 355 357 358 354 352 358 358 355 358 361 361 362 363 367 337 334 336 332 330 326 323 323 324 324 323 322 321 319 317 314 312 313
365 363 359 359 362 359 350 324 323 325 346 359 360 358 358 356 355 358 358 359 357 338 332 331 330 330 331 331 330 330 329 330 339 353 350 353 353 350 350 348 351 354 357 357 359 357 354 357 360 356 359 361 360 358 362 363 359 333 330 328 327 325 324 321 321 323 322 321 320 318 316 314 313 322
361 358 358 352 349 347 334 319 320 321 338 354 357 357 356 354 355 357 358 358 357 359 359 361 366 365 351 358 361 361 343 338 346 353 354 355 353 351 351 352 353 351 353 359 367 359 358 358 358 358 353 351 356 362 362 364 367 368 369 372 356 326 323 321 320 318 320 320 319 318 315 313 314 334
358 356 351 340 323 321 317 315 313 316 318 339 350 354 353 352 352 355 354 354 352 354 355 358 359 358 361 361 363 363 364 362 364 361 361 361 358 356 354 355 354 352 354 362 361 358 359 360 355 360 358 350 348 356 361 362 364 364 365 364 365 339 326 324 322 317 317 317 317 317 315 312 314 338
354 354 354 346 322 315 313 311 308 309 312 321 341 346 346 348 345 339 343 344 346 346 349 353 355 357 359 361 362 362 363 361 362 362 362 363 361 357 355 355 356 352 355 362 356 365 359 357 355 359 358 359 355 354 358 361 364 362 365 365 363 364 365 359 354 357 321 315 314 313 313 313 311 327
350 348 349 349 329 313 311 308 306 305 310 315 336 353 326 319 322 343 345 344 341 339 340 340 343 346 348 349 354 357 359 360 359 362 363 363 362 361 358 356 354 353 354 370 350 364 358 356 357 355 356 356 354 355 353 354 360 362 365 365 364 365 366 363 361 363 366 350 339 322 323 312 313 313
340 341 340 339 331 311 306 304 304 306 307 318 340 319 315 318 318 330 343 344 344 342 342 342 343 345 348 350 349 349 353 357 362 361 359 361 362 363 362 362 361 359 360 364 366 366 362 358 361 359 354 356 353 353 354 351 354 361 359 359 362 364 365 365 361 361 362 362 364 324 316 313 313 313
335 337 335 332 311 305 302 303 306 309 313 330 317 312 314 318 327 341 343 343 347 348 345 345 345 348 347 349 351 351 354 354 357 356 355 356 359 361 361 362 360 362 363 362 363 364 363 360 359 361 361 358 351 350 351 356 356 355 355 359 361 361 362 360 360 359 360 363 364 347 344 338 330 324
331 323 310 307 308 309 308 307 309 314 317 311 310 310 313 332 342 343 346 347 347 343 342 342 344 345 346 348 351 356 357 356 355 356 355 356 357 357 359 359 360 361 357 358 361 362 363 361 360 361 361 360 356 355 353 352 355 356 356 356 355 360 361 363 362 360 359 361 360 362 356 354 348 336
318 313 311 311 311 314 320 336 339 336 338 332 327 324 328 340 340 342 343 342 340 341 339 339 340 342 346 348 353 354 355 353 351 352 352 352 351 353 352 351 354 357 357 359 359 360 361 361 363 362 361 360 358 355 355 354 354 356 355 354 357 356 360 361 361 361 360 361 361 362 363 363 361 349
328 332 330 329 322 319 318 320 322 325 330 336 340 343 341 341 338 339 342 342 343 343 340 340 343 346 348 350 350 350 350 349 350 354 351 350 349 351 351 351 350 350 352 356 356 359 360 361 361 361 356 356 356 357 358 358 353 354 356 356 357 351 356 362 361 359 361 361 363 362 364 363 362 363
327 328 331 328 339 343 342 340 340 340 342 341 338 338 337 336 337 339 342 342 345 348 347 346 347 345 347 347 346 347 347 347 348 352 350 349 349 349 350 348 347 348 349 352 354 357 360 361 361 361 360 358 355 356 359 357 353 354 353 355 354 356 357 356 359 361 363 363 361 361 362 362 361 362
329 332 332 333 332 333 330 329 331 330 331 332 334 334 337 339 337 337 337 341 341 343 343 342 344 342 343 343 343 343 344 344 345 348 346 347 347 348 348 345 344 344 344 346 349 351 356 359 361 360 360 360 359 358 354 350 354 355 354 354 354 354 355 357 358 360 366 364 362 362 361 363 363 361
324 328 330 329 328 328 328 328 328 329 331 332 332 334 330 333 336 339 338 338 339 344 341 342 340 341 338 340 340 339 338 340 340 340 335 342 346 343 342 341 341 343 343 343 345 346 349 351 353 353 356 359 359 361 359 354 351 353 354 354 353 353 357 360 360 363 364 362 361 361 360 360 362 363
330 330 328 326 327 327 329 328 327 329 329 330 332 333 333 335 335 336 339 340 338 339 339 340 338 337 337 338 336 336 337 337 337 337 338 337 339 336 336 336 337 338 339 339 341 344 346 346 347 346 346 348 348 354 353 362 356 355 355 354 356 355 356 359 356 361 363 362 362 359 360 358 359 361
324 324 325 324 325 326 326 326 328 330 329 330 332 332 332 334 335 336 337 341 340 338 338 336 335 335 335 335 335 335 333 332 333 334 334 334 333 333 334 333 333 333 335 337 338 341 344 344 344 342 338 337 338 338 343 352 352 357 352 350 353 354 356 360 361 361 361 358 361 362 355 354 357 360
323 324 323 324 326 326 325 326 327 327 328 329 332 332 332 332 334 336 341 337 340 338 335 334 333 332 333 333 332 331 332 332 332 332 332 332 333 332 332 331 331 333 332 333 334 333 336 335 335 333 337 337 335 333 338 350 346 343 360 351 354 355 357 357 357 357 358 361 356 356 359 359 357 359
321 321 322 323 323 324 325 325 325 327 328 330 330 332 332 333 336 339 342 338 336 339 336 335 334 333 331 330 330 330 331 332 331 332 330 330 329 329 329 330 330 331 331 331 333 332 332 331 331 332 336 337 336 334 335 341 342 340 342 358 350 351 353 355 351 351 353 357 358 360 359 355 360 362
324 324 324 323 324 324 325 325 326 327 328 328 329 328 330 331 334 336 336 335 338 338 338 337 335 333 332 331 329 329 330 330 330 329 329 330 329 328 328 328 328 328 329 328 328 329 331 332 332 333 332 333 336 336 335 329 328 332 332 330 348 350 351 352 353 353 352 351 360 361 355 361 354 342
323 324 324 323 324 325 325 327 326 327 327 328 329 329 330 329 330 332 334 334 335 336 335 335 334 329 330 329 329 329 328 330 329 329 329 329 328 329 328 328 328 328 328 326 328 329 330 330 333 334 334 332 330 329 329 331 335 341 346 345 323 343 354 354 352 351 351 355 358 351 347 353 354 358
323 323 324 325 325 325 325 326 326 327 327 328 330 327 329 332 332 332 333 333 333 333 331 331 331 331 330 329 329 327 326 325 328 328 329 328 327 327 326 324 327 328 328 327 327 327 328 331 335 326 336 335 337 341 339 337 334 335 335 336 323 319 327 338 358 355 353 358 359 351 347 347 350 352
322 321 322 324 324 325 325 325 325 325 326 326 327 328 330 330 330 328 327 329 329 331 330 329 329 328 327 327 327 325 326 325 325 326 326 327 326 326 325 326 326 326 325 324 325 327 330 333 334 335 336 335 333 331 328 328 329 331 335 337 340 328 319 319 326 335 361 358 356 351 347 348 350 348
321 321 321 322 323 323 323 323 324 325 324 325 325 327 327 326 326 325 326 326 327 327 327 327 327 326 326 326 326 326 325 324 325 326 326 326 325 325 324 324 324 325 326 325 327 328 330 332 332 330 330 329 329 331 330 330 330 331 333 335 336 338 346 326 320 319 322 325 330 343 356 353 348 341
318 318 319 320 320 320 321 322 321 322 323 323 323 324 324 324 324 325 325 324 324 324 324 324 325 325 325 325 326 326 325 324 324 324 323 323 324 323 323 324 324 325 326 325 325 325 326 327 328 328 328 327 328 326 326 327 326 327 328 331 334 336 335 339 344 334 326 325 322 321 322 327 337 339
317 317 318 318 318 319 319 319 319 320 321 321 321 322 322 322 322 323 323 323 323 323 323 323 323 323 324 323 323 322 323 319 320 322 322 322 323 322 323 323 322 322 323 324 324 324 325 326 327 327 327 326 328 328 327 326 327 326 326 326 326 328 330 333 335 336 340 344 334 325 324 322 323 323
Wind_Speed
3 2 2 3 3 3 3 4 4 2 3 4 4 3 3 3 4 4 5 3 5 4 5 6 3 4 4 4 5 5 5 5 7 7 6 6 6 8 8 8 6 7 7 7 7 8 8 8 7 6 5 6 8 9 9 9 9 9 8 6 4 5 4 4 4 2 1 1 2 3 3 5 4 4
3 3 3 2 3 3 4 4 3 1 2 4 4 4 3 2 3 4 5 5 6 6 7 6 4 3 3 5 5 5 7 9 7 6 6 6 7 9 10 8 7 6 6 6 7 7 8 8 8 7 6 5 6 8 9 9 9 10 10 8 6 5 6 5 5 4 3 2 0 1 2 4 4 3
2 2 3 3 4 3 4 5 5 2 3 3 4 4 3 3 4 5 5 6 3 4 5 5 6 6 4 6 6 6 6 4 5 6 6 6 8 13 10 10 7 4 5 6 7 8 8 8 8 8 7 5 5 7 8 8 9 10 10 9 8 7 7 6 6 6 4 3 2 2 3 3 4 2
1 2 3 3 4 3 4 4 4 4 3 4 5 4 4 4 4 3 4 5 6 6 7 7 6 6 6 5 5 6 6 2 8 7 5 6 9 8 5 11 9 5 4 5 8 8 8 9 8 8 8 6 5 6 7 8 9 10 10 10 9 8 7 7 7 7 6 5 3 3 3 3 3 4
3 3 3 4 4 4 4 4 4 5 4 4 4 3 3 4 3 3 4 6 6 5 6 6 6 7 6 5 4 6 6 6 6 8 6 7 7 7 6 7 10 7 2 5 7 7 8 8 8 8 8 7 5 4 5 7 8 9 9 10 9 8 8 7 8 8 7 6 5 3 3 3 4 4
3 3 4 4 4 4 4 4 5 5 5 5 5 4 4 4 4 2 4 5 6 7 6 6 6 6 5 6 4 6 7 7 7 8 8 7 8 6 7 8 3 9 3 3 6 7 7 8 8 8 8 7 5 3 5 6 7 8 9 10 10 9 8 8 8 9 8 7 6 5 3 4 4 4
4 4 4 4 4 4 3 3 5 5 4 4 5 5 5 5 5 5 4 4 6 7 7 7 7 6 6 6 6 6 6 6 6 7 8 8 7 7 8 8 8 9 2 2 7 8 8 8 8 8 8 9 7 3 5 6 7 8 9 10 10 10 10 9 8 9 9 8 8 7 5 4 5 5
4 4 4 4 4 3 4 4 5 4 4 4 4 5 4 4 5 4 4 4 5 6 8 7 7 7 7 6 6 6 6 7 7 6 7 8 8 9 9 9 10 1 4 8 10 10 9 9 8 9 9 10 9 5 4 6 7 8 8 9 10 10 11 10 9 8 9 9 8 8 7 5 6 6
5 5 5 4 4 4 4 5 5 4 3 4 5 5 4 4 4 4 5 5 5 6 7 7 6 7 7 6 6 6 7 7 7 7 7 8 8 8 9 10 9 11 9 12 11 11 11 11 9 10 10 10 10 9 5 6 8 8 9 9 10 11 11 11 10 9 8 9 8 8 8 7 7 7
6 5 5 5 5 5 5 5 4 4 5 5 6 5 5 5 5 5 6 5 5 6 7 7 8 7 7 7 6 7 6 8 8 8 7 8 7 7 9 9 9 9 9 8 6 7 10 9 12 12 10 11 11 11 8 6 8 9 9 9 10 10 11 11 11 10 9 9 10 9 9 8 7 8
6 6 6 6 6 6 6 6 5 5 5 5 5 5 5 5 5 6 6 5 6 6 7 7 7 7 7 7 8 7 6 6 7 7 7 8 7 7 8 9 9 9 10 10 10 9 8 10 10 7 9 11 12 11 10 6 9 9 9 10 10 10 11 11 12 11 10 10 10 9 9 7 8 9
6 6 7 8 6 6 6 6 5 5 5 4 5 4 5 5 6 6 6 6 6 6 7 7 7 7 8 8 8 8 7 7 6 7 7 9 9 9 8 8 10 9 9 9 10 6 7 9 11 14 14 14 13 12 10 11 9 9 9 10 10 10 10 11 12 12 11 10 10 10 10 9 8 9
6 7 7 7 8 3 2 2 4 6 6 6 6 6 5 6 6 7 6 6 6 6 7 7 7 8 8 8 8 8 7 7 8 7 7 8 9 9 10 9 9 8 9 9 10 11 10 10 10 9 9 5 8 11 13 7 11 8 9 9 10 10 11 11 11 12 12 12 11 11 11 11 10 9
7 7 7 6 1 2 4 6 6 7 7 6 7 7 6 6 7 7 7 7 7 7 8 8 8 9 9 9 8 9 9 9 8 8 8 9 9 9 10 10 8 8 9 10 10 10 10 10 9 8 8 8 6 7 3 6 5 7 9 9 10 10 11 11 12 12 12 12 12 12 12 12 11 10
7 7 6 6 6 7 7 9 10 9 8 8 9 10 9 8 7 7 7 7 7 7 8 8 8 9 9 9 9 10 10 10 9 9 8 9 9 9 10 11 9 6 8 9 10 10 10 9 9 8 8 8 7 6 3 7 4 7 9 9 10 10 11 11 11 12 12 12 13 12 13 13 13 12
6 7 6 7 6 6 3 3 4 8 10 10 10 10 10 10 12 11 9 7 7 8 8 9 9 10 10 10 10 11 11 10 10 10 10 9 10 10 10 10 10 8 9 11 11 11 9 8 9 9 7 7 8 5 3 5 6 6 7 9 10 11 11 11 11 12 12 13 13 13 13 13 13 13
6 5 5 6 5 4 8 4 6 5 4 9 11 11 11 11 12 12 14 14 11 9 9 10 11 10 10 11 10 10 10 9 10 10 10 10 11 11 11 11 11 11 9 10 11 11 9 9 9 9 8 8 7 5 9 9 7 8 7 8 9 10 11 11 12 12 13 13 13 14 14 13 14 14
7 5 5 5 5 4 3 3 4 4 5 5 5 7 8 8 11 14 16 16 17 14 10 9 10 10 9 10 10 10 10 10 10 11 12 11 12 11 12 12 12 12 10 10 10 10 9 9 10 9 8 8 6 7 6 12 10 9 7 7 8 9 10 12 12 13 13 13 13 13 13 13 13 13
7 5 5 5 5 3 2 4 5 3 5 5 6 7 8 8 8 8 9 10 10 9 10 10 11 11 11 11 11 10 9 10 10 10 11 12 12 11 11 11 12 12 10 11 9 10 10 9 10 9 9 9 8 8 4 14 11 10 8 8 9 10 11 12 13 13 14 14 14 14 14 14 13 13
3 4 3 3 3 3 4 7 8 5 5 6 7 7 8 8 8 9 9 8 6 10 12 11 12 11 12 13 12 11 10 10 11 11 11 11 10 11 11 12 12 12 10 9 9 9 9 8 10 10 10 9 10 8 9 5 12 12 10 9 9 11 12 13 13 14 14 15 15 15 15 15 14 13
3 2 1 3 3 1 7 7 9 9 8 6 7 7 8 8 8 7 7 4 6 11 11 12 13 14 16 17 16 16 15 10 8 9 10 11 10 11 12 12 12 12 11 10 10 11 11 8 9 11 10 10 10 10 8 5 12 12 11 10 10 10 11 12 13 14 15 15 15 16 16 16 14 13
2 5 6 1 3 5 5 7 8 9 8 6 8 9 10 10 10 9 7 8 5 8 13 13 14 15 15 15 15 15 15 15 8 7 9 11 10 12 12 13 12 11 11 11 10 8 9 10 9 10 10 10 9 9 7 7 1 11 8 13 12 12 12 11 11 12 14 15 15 16 16 15 13 8
2 3 7 11 9 7 6 7 6 7 8 6 8 8 10 10 9 8 9 7 8 8 8 9 9 10 11 10 10 10 15 17 12 10 11 11 10 11 12 12 12 12 10 8 5 5 9 10 10 10 10 10 10 8 8 7 7 7 7 5 8 14 13 13 12 12 13 14 15 16 15 14 13 8
4 5 6 7 8 9 5 4 4 4 5 5 6 8 8 9 9 8 9 9 10 11 11 11 11 12 12 12 10 10 8 7 9 10 10 9 10 10 12 12 12 12 10 8 9 9 9 9 11 9 10 11 11 10 10 10 9 9 9 9 10 7 11 8 8 13 13 13 14 14 14 14 14 9
5 4 5 6 7 8 6 4 3 2 3 4 5 6 6 5 7 9 9 10 11 11 11 11 10 9 9 9 9 8 7 8 7 7 8 8 9 10 11 11 11 12 11 6 9 8 9 11 13 11 10 9 11 12 10 10 9 10 9 9 9 7 4 6 6 6 13 15 13 12 13 15 18 13
2 3 1 3 9 10 7 7 6 5 4 4 5 4 4 8 8 6 7 8 9 9 9 9 9 9 9 9 9 9 8 8 6 8 7 5 7 9 10 11 12 13 13 7 6 8 11 11 10 12 10 11 12 11 12 11 10 9 8 8 8 7 6 8 9 10 5 7 7 11 12 17 18 21
2 2 2 3 9 11 9 9 9 8 7 7 4 3 6 7 7 7 7 7 7 8 8 8 8 8 8 8 8 7 7 7 7 8 8 10 9 9 10 11 11 13 12 12 10 9 9 11 10 11 12 11 13 12 11 12 9 8 10 9 9 8 7 7 9 8 9 8 7 16 14 14 17 18
4 4 5 6 10 11 11 11 10 10 8 6 9 11 10 9 8 6 7 6 6 7 7 8 7 7 7 7 7 6 7 8 8 9 9 9 9 9 10 10 11 11 12 12 11 9 9 11 11 11 11 10 12 13 13 11 10 10 9 9 9 9 8 9 9 9 9 8 9 6 6 7 8 9
5 7 10 11 12 11 11 12 12 10 10 13 11 11 10 9 6 6 6 6 6 7 7 8 7 7 6 6 6 6 7 8 8 8 7 8 9 10 10 10 10 10 10 9 10 9 9 10 11 11 10 9 10 12 12 14 12 11 10 10 10 7 8 8 9 10 11 10 9 6 7 7 8 10
9 10 10 12 13 13 11 8 6 6 5 3 7 11 11 8 7 6 5 6 7 7 7 7 7 7 6 6 6 7 7 7 7 7 8 9 9 9 9 10 9 10 10 9 9 9 9 9 9 10 11 10 10 11 11 13 12 11 10 11 10 12 9 8 9 9 10 10 11 9 8 8 9 8
5 6 7 7 9 11 13 13 12 11 10 9 9 7 7 6 5 5 5 6 6 6 6 7 6 6 6 6 7 7 6 7 7 7 8 8 9 9 9 10 11 10 9 9 8 7 7 8 9 10 11 11 10 11 12 11 13 12 11 10 9 11 10 9 10 10 10 11 10 10 10 9 8 8
7 8 8 10 9 7 8 8 7 6 6 6 6 6 5 6 6 6 8 9 7 6 6 6 6 6 6 7 7 7 7 6 6 7 7 7 8 8 9 9 10 10 10 9 8 7 7 8 9 9 10 11 12 12 10 12 12 12 14 12 11 12 11 13 11 10 10 10 11 11 11 11 11 9
7 7 6 5 5 5 4 5 5 4 5 4 5 6 6 5 5 6 6 5 5 5 5 5 6 6 6 7 7 7 7 6 6 6 7 8 8 8 8 9 10 9 10 9 8 8 8 8 9 10 11 12 12 13 13 13 12 11 12 12 11 12 11 12 11 11 10 10 11 12 11 11 11 11
6 6 5 5 4 4 4 5 5 5 5 5 5 5 5 6 6 5 5 5 5 4 5 6 6 6 6 7 7 7 7 7 7 7 7 7 7 8 8 9 10 9 10 10 9 10 9 9 9 10 10 10 11 12 13 13 14 12 11 11 11 12 11 11 11 12 10 11 10 11 11 12 11 10
6 6 5 5 5 4 5 5 5 5 5 5 5 6 6 6 6 5 5 4 5 5 6 6 6 6 7 8 7 7 7 8 8 8 8 8 8 9 9 10 10 10 10 10 10 10 9 9 10 11 10 10 11 9 10 12 12 12 11 11 10 12 12 11 12 11 11 10 11 11 11 12 12 10
6 5 5 5 5 5 6 6 5 6 6 6 6 6 6 6 6 6 6 5 7 7 7 7 6 7 7 7 8 8 8 9 9 8 8 8 9 9 9 9 10 11 10 10 11 10 9 10 10 10 11 11 12 12 10 10 12 10 12 12 11 11 12 10 9 9 9 11 12 8 10 11 11 11
5 5 5 5 5 5 6 6 6 6 7 6 6 6 7 7 7 6 7 7 7 8 8 8 9 8 8 8 8 9 9 9 9 9 9 9 8 9 9 10 10 10 10 10 10 10 10 10 10 11 11 12 12 13 13 8 10 14 10 11 11 11 11 10 10 11 11 9 11 14 11 10 11 11
6 6 6 5 5 5 6 6 6 6 6 7 7 7 7 7 7 7 7 8 8 9 8 8 8 9 9 9 10 10 10 10 10 10 10 9 10 9 9 10 10 10 10 10 10 10 10 11 11 11 10 11 12 13 13 10 10 7 10 10 11 11 10 10 13 14 13 11 10 11 11 15 12 10
5 5 5 5 6 6 6 5 6 6 7 6 7 7 8 8 7 8 8 8 8 8 7 7 7 8 10 11 11 11 11 11 11 11 11 10 10 10 10 10 11 10 10 11 11 11 10 10 10 10 10 11 11 11 12 14 15 15 10 14 10 13 12 11 12 13 14 14 7 6 11 12 14 14
5 5 5 6 6 5 6 6 6 6 6 7 7 7 8 8 8 8 8 8 8 8 8 8 9 10 12 12 12 12 12 12 11 11 11 11 11 11 11 10 11 11 12 12 12 10 10 10 9 8 10 12 14 15 15 15 15 15 16 14 22 18 13 10 11 12 13 11 4 5 12 12 12 9
4 5 5 5 6 6 6 6 6 6 7 7 7 8 8 8 8 8 8 8 9 9 10 11 11 11 12 12 12 12 13 12 12 11 11 11 12 12 12 12 12 11 11 12 12 12 11 10 11 13 13 13 14 13 13 13 14 13 14 13 9 18 21 17 13 12 13 11 6 6 12 12 10 9
5 5 5 5 5 6 6 7 7 8 8 8 8 8 8 9 9 9 9 10 10 10 10 11 11 11 11 11 11 11 12 13 12 12 12 12 12 12 13 12 12 12 13 13 13 13 13 12 13 12 11 11 11 11 13 14 15 14 14 14 13 10 18 22 21 18 16 13 9 8 10 10 7 8
5 6 6 6 6 6 7 7 8 8 8 9 9 9 9 9 10 10 10 10 9 9 10 10 11 11 11 11 11 12 13 13 12 13 13 13 13 13 13 13 13 14 14 14 13 14 13 12 11 12 12 11 11 11 13 14 14 14 15 15 14 13 10 12 19 21 21 21 20 16 12 10 8 9
7 7 7 7 8 8 8 8 8 8 8 9 9 9 9 9 9 10 10 10 10 10 10 11 10 11 11 11 11 12 12 12 12 13 13 13 14 14 14 14 14 14 14 14 14 14 13 13 13 12 12 11 11 12 14 14 14 14 14 15 15 15 16 14 12 14 17 21 23 23 24 23 19 21
7 7 8 8 8 9 8 9 9 9 10 10 10 10 10 10 10 10 10 10 10 10 10 11 11 11 11 11 11 12 11 13 14 13 13 14 13 13 13 14 14 14 14 13 14 14 13 13 12 12 12 13 12 12 13 13 14 14 15 16 18 16 15 14 14 16 14 12 14 23 24 23 23 23
Wind_Direction
279 263 262 280 287 289 306 293 296 26 327 313 318 310 323 358 314 310 305 328 316 332 340 315 82 31 350 312 314 305 321 38 348 339 331 336 333 14 324 306 293 302 314 318 319 318 314 312 299 303 286 274 264 262 256 243 210 204 198 195 190 178 175 165 168 187 244 1 74 64 79 96 88 67
266 278 281 287 284 295 277 265 296 325 297 298 305 319 342 314 298 309 308 331 318 328 329 316 0 29 338 314 327 341 329 101 331 338 335 333 356 323 297 276 270 286 307 320 321 319 318 316 314 311 301 274 262 257 256 249 219 206 200 196 198 190 182 188 176 182 197 216 123 99 112 132 106 94
272 291 283 280 272 285 295 314 292 344 309 296 299 304 309 296 302 305 311 302 347 318 292 311 341 326 358 339 333 335 325 88 1 332 330 332 330 294 268 233 221 259 299 320 324 322 320 318 313 312 306 287 255 246 247 244 234 215 202 200 196 197 184 189 196 183 187 212 213 168 160 153 150 134
293 272 273 275 281 288 290 294 303 278 265 295 302 308 309 293 284 296 298 298 302 309 311 328 307 319 345 322 336 335 313 105 178 334 309 324 274 276 331 179 195 192 288 326 326 322 319 313 309 309 305 297 269 249 247 241 234 224 209 199 196 197 196 185 194 193 189 198 216 201 183 174 162 178
259 263 275 281 285 286 285 286 289 300 286 265 258 262 271 286 293 299 309 302 305 299 311 302 317 329 325 328 345 323 325 327 346 315 337 314 319 315 318 320 171 187 165 341 329 318 310 306 303 300 298 295 286 260 253 246 237 231 216 200 194 192 199 199 197 191 194 191 206 205 204 198 195 191
265 251 258 269 269 250 259 276 279 278 288 292 300 314 313 317 314 334 307 313 309 311 311 321 318 304 339 315 339 330 318 334 320 327 323 319 317 321 317 316 306 166 120 336 316 298 290 293 291 289 290 288 288 260 248 241 238 237 224 207 197 193 199 206 204 195 192 192 194 206 215 210 203 206
241 246 251 255 253 251 254 263 265 271 285 299 307 301 300 304 302 307 311 306 306 312 309 311 306 323 331 318 322 313 319 314 315 318 321 323 322 321 317 312 314 144 231 222 264 266 271 274 277 281 285 291 295 266 239 234 236 233 226 215 203 197 198 205 210 198 193 194 195 199 211 215 206 211
238 249 254 261 268 283 278 268 279 279 273 278 277 285 289 287 296 300 292 287 298 304 304 305 311 317 316 308 309 311 312 312 324 314 317 310 315 318 314 311 311 11 213 224 234 250 258 255 258 263 278 289 293 284 226 227 226 224 224 219 210 202 199 202 209 205 193 194 195 198 200 211 215 210
265 265 265 261 255 254 261 263 259 267 283 287 293 286 291 291 294 303 302 296 291 297 297 303 301 302 292 297 302 312 310 314 311 316 309 314 313 316 313 310 317 308 249 222 232 242 238 237 234 247 268 279 281 283 246 219 216 217 218 217 214 207 202 200 204 208 198 189 193 195 200 202 215 216
235 242 244 254 257 257 262 276 290 297 291 281 273 294 307 304 304 295 285 284 288 287 290 292 296 290 301 303 303 302 299 305 315 312 312 308 313 311 311 316 315 318 325 333 308 242 228 214 223 243 252 260 271 273 270 216 211 213 213 214 213 211 205 200 200 204 200 192 191 195 200 205 207 216
229 231 234 237 243 250 258 269 274 275 278 285 296 284 284 287 292 290 291 293 286 284 284 288 285 290 293 301 299 302 302 286 284 298 302 302 307 308 311 309 313 317 322 315 275 269 295 298 285 278 242 245 256 267 267 233 209 209 209 209 211 213 210 205 199 200 201 194 192 195 199 202 204 213
241 234 235 240 236 235 236 244 258 259 267 281 282 287 293 297 289 289 292 293 292 289 290 288 298 301 296 289 293 297 290 296 297 301 309 306 310 309 306 306 312 316 311 307 323 311 258 261 241 235 242 241 245 247 246 240 209 199 202 203 207 209 210 209 203 199 201 198 191 193 194 197 203 210
238 242 247 243 243 241 24 322 288 301 319 300 286 285 282 279 287 287 287 287 286 285 284 289 289 284 289 293 290 299 308 306 307 304 298 301 299 306 308 307 307 310 312 312 321 321 321 312 313 319 318 306 217 225 218 231 164 174 192 201 204 206 205 207 206 202 199 200 194 191 193 196 200 200
243 243 250 253 94 84 226 231 234 242 249 242 274 294 298 297 291 290 287 284 283 288 292 290 292 294 294 298 306 309 304 300 295 301 312 306 307 304 301 299 303 315 312 320 314 309 313 314 311 307 305 313 297 324 213 31 34 165 189 198 206 207 205 204 206 205 201 200 200 194 193 194 196 198
261 259 253 259 220 192 204 221 224 236 232 234 236 245 252 265 271 278 279 280 286 287 288 290 286 291 297 298 302 297 298 301 308 306 304 301 302 300 302 303 305 300 322 311 308 300 303 303 300 305 307 303 316 303 73 123 200 180 192 198 205 207 207 205 205 206 204 202 203 200 195 194 196 199
251 252 252 249 248 241 251 298 218 212 215 220 229 233 241 235 240 246 256 269 274 277 283 286 289 292 291 295 294 297 302 306 305 301 297 293 293 296 295 296 299 309 309 309 302 297 295 303 305 296 289 300 301 342 105 179 230 237 199 204 204 206 207 206 207 205 206 205 204 206 200 196 194 200
255 261 264 269 272 263 128 221 248 264 247 206 210 227 232 238 240 236 235 242 252 268 269 278 282 281 290 290 291 298 303 307 295 294 290 292 293 294 294 294 300 301 305 295 296 299 303 302 297 302 308 308 309 292 177 192 209 232 221 205 207 205 205 206 207 208 207 207 209 207 207 201 197 199
238 231 246 250 249 262 265 254 260 265 262 276 254 235 235 241 228 221 225 231 234 237 254 268 272 275 274 277 284 290 292 291 291 294 293 298 295 294 294 301 292 288 291 289 303 296 294 306 312 307 307 304 294 282 140 177 204 229 229 205 206 202 206 205 206 207 208 208 209 210 211 209 204 203
253 246 238 244 251 239 239 44 31 320 299 285 277 273 275 268 275 271 251 235 228 216 227 242 255 262 262 265 274 276 276 279 284 288 293 294 291 289 290 284 277 278 273 274 279 289 299 307 303 308 312 312 308 307 183 191 197 211 222 203 197 200 201 205 205 206 207 207 207 209 210 211 210 207
253 252 264 258 253 246 77 42 39 18 315 288 277 279 278 282 279 282 300 300 281 286 290 289 292 298 319 332 310 306 306 305 295 292 287 284 283 284 286 284 290 292 299 298 295 289 288 295 301 310 313 312 305 311 305 189 194 197 209 208 204 201 200 201 202 203 205 205 206 207 209 210 211 210
223 248 286 298 283 78 67 30 18 8 329 290 283 282 286 290 296 285 292 258 253 252 247 253 267 275 276 278 287 288 287 281 295 299 290 278 279 284 286 288 292 297 306 308 306 304 296 298 302 307 310 311 307 297 290 286 184 196 193 207 209 211 208 207 204 203 203 205 205 206 206 206 206 207
219 92 76 342 355 61 61 29 16 354 320 291 289 291 293 293 291 294 298 298 294 247 249 252 255 256 258 261 261 265 265 266 253 255 267 278 287 287 287 288 291 295 300 302 318 306 292 307 308 307 309 306 295 296 308 314 286 181 199 208 210 207 209 211 214 212 208 206 207 207 205 201 193 191
137 109 85 67 65 58 50 33 13 345 335 313 300 297 295 292 292 300 311 311 308 308 305 291 283 275 257 248 249 243 236 242 230 232 251 272 276 278 282 286 291 289 287 311 358 296 303 307 308 311 311 306 306 306 305 304 303 290 283 253 210 209 208 209 213 214 216 213 209 207 202 196 184 209
197 157 120 100 88 90 65 47 8 353 345 322 317 311 300 296 296 336 329 315 308 299 291 291 291 291 290 284 281 284 284 259 236 235 238 254 270 276 280 281 283 284 292 303 326 310 305 304 299 307 308 307 307 309 307 300 300 302 298 288 296 210 197 205 218 218 221 217 215 209 200 188 191 214
256 183 180 126 92 63 37 4 345 312 316 300 302 290 290 325 349 332 298 300 299 292 290 284 281 283 287 288 286 280 267 264 262 249 251 272 283 289 286 287 291 286 292 329 38 324 310 301 298 300 296 298 292 295 300 302 299 301 301 298 292 288 235 209 221 219 203 216 214 210 201 194 199 219
264 286 269 49 39 18 358 338 323 306 281 265 264 285 334 329 323 307 293 288 292 294 294 294 295 297 298 299 298 296 291 294 323 324 301 274 270 271 279 288 292 295 294 317 13 320 304 296 297 300 298 296 294 296 300 297 297 292 296 297 294 294 297 296 297 294 261 177 190 200 204 202 204 213
325 50 336 30 21 345 329 321 310 300 296 271 240 322 301 286 288 272 273 281 286 289 292 298 296 297 293 294 303 305 315 318 330 315 307 301 295 286 284 280 280 283 292 299 298 289 284 284 291 291 293 294 293 295 288 292 295 309 299 299 300 299 297 285 273 276 286 282 243 176 191 195 211 217
5 354 349 341 332 315 309 302 299 298 286 270 285 285 279 275 267 267 274 268 275 286 291 292 294 294 302 304 305 321 331 327 326 314 303 294 292 296 296 295 290 290 295 293 292 285 278 278 279 280 283 288 291 290 293 291 290 295 298 300 303 298 296 292 290 291 280 265 277 151 182 189 207 211
351 347 319 305 299 297 293 285 278 268 256 248 249 253 258 264 270 264 269 287 298 292 290 289 291 298 300 308 310 326 323 310 298 289 297 309 307 298 293 292 291 288 285 285 281 276 273 276 283 287 285 279 282 286 289 291 293 289 290 297 292 290 293 288 280 279 281 279 270 237 214 213 196 193
294 283 277 277 271 267 258 259 267 281 288 272 267 263 261 262 260 262 286 292 283 281 287 296 297 296 302 308 329 318 300 306 308 312 309 312 308 311 311 309 306 304 295 288 286 289 289 287 289 292 291 285 282 286 287 290 287 289 294 290 293 295 277 270 272 271 266 269 273 267 258 262 263 190
274 261 261 286 287 279 278 271 266 267 268 265 252 246 242 251 269 275 259 270 280 282 283 281 285 300 312 319 307 299 306 296 303 318 321 312 315 317 313 309 302 300 298 302 306 310 308 302 298 296 293 293 288 281 285 285 288 292 289 284 283 283 289 285 276 272 271 269 270 269 264 253 250 240
301 294 277 256 248 248 243 241 236 231 230 251 268 271 283 289 285 275 271 265 263 263 271 295 306 303 305 303 306 307 303 318 325 328 323 323 315 313 315 305 303 307 308 310 310 311 304 301 302 297 291 289 289 289 286 285 284 284 286 288 285 282 283 282 276 272 271 269 268 268 263 261 256 252
289 285 276 276 268 264 283 292 291 294 290 291 292 286 274 278 286 283 271 279 291 296 299 296 296 293 300 302 300 296 300 303 302 301 303 305 301 302 301 298 300 304 308 309 310 310 315 320 315 310 300 293 285 285 285 283 279 282 286 289 288 284 282 277 279 279 278 274 268 267 262 258 258 254
299 291 291 289 298 304 305 306 302 303 313 310 301 300 302 277 269 284 301 288 279 294 298 286 284 301 305 295 296 302 301 302 300 306 302 295 296 296 294 296 298 298 297 298 303 303 304 307 312 308 302 294 289 277 272 274 281 284 281 286 282 284 282 282 278 276 274 271 272 270 266 264 260 249
261 283 292 302 302 297 300 303 304 313 304 306 308 305 308 307 299 282 276 296 311 302 295 297 300 302 299 299 302 301 303 307 306 301 296 294 293 289 292 292 294 297 298 297 296 298 299 299 302 302 301 304 303 294 256 246 267 274 286 283 285 283 285 284 288 285 282 287 283 275 273 269 265 259
293 300 303 304 307 308 300 301 311 306 306 311 311 311 304 305 310 308 294 313 309 302 291 287 296 299 297 300 306 308 308 304 297 297 299 299 296 294 292 291 293 293 294 293 295 297 301 300 298 296 298 299 299 298 298 217 224 275 287 292 293 294 293 300 301 297 290 274 268 263 266 268 271 267
295 302 297 293 293 299 300 307 308 311 309 307 307 306 305 300 299 303 313 315 289 285 287 297 294 292 297 304 306 305 303 300 300 301 297 295 296 298 294 291 291 296 296 295 300 301 301 299 296 292 291 293 291 291 288 307 242 228 261 282 291 292 295 295 291 283 271 262 265 267 269 266 267 275
294 290 294 301 305 305 305 302 301 301 304 304 300 296 290 290 292 295 302 295 289 286 283 276 282 294 299 310 310 308 306 302 300 298 298 300 298 296 297 299 298 297 298 299 299 299 297 292 288 287 285 284 292 290 297 303 307 279 211 238 273 282 283 281 284 283 282 278 285 284 279 277 270 267
283 293 297 299 302 300 300 300 300 294 295 297 298 297 298 296 296 295 293 293 297 297 296 298 293 301 304 301 300 300 299 302 302 302 300 297 297 296 297 299 298 297 300 300 299 293 289 287 291 295 293 293 294 306 311 305 293 296 263 203 252 270 266 269 273 275 281 285 272 304 292 280 291 290
285 289 290 292 292 296 296 298 295 297 299 300 302 306 308 305 301 300 298 297 298 302 295 296 298 295 291 294 295 295 294 297 298 299 301 301 301 302 298 299 301 302 295 290 291 294 296 297 295 313 332 319 306 295 288 282 280 276 280 251 216 225 250 260 262 271 280 274 289 297 286 283 276 281
307 301 300 300 301 297 296 297 301 301 299 303 302 300 296 299 299 296 304 318 314 298 289 288 290 291 289 292 293 294 295 296 296 296 300 300 298 295 300 302 292 290 292 294 296 294 295 301 320 323 298 287 281 280 275 276 279 285 284 287 257 220 229 234 251 264 267 275 273 257 270 275 288 292
312 305 301 299 303 309 307 302 303 308 307 304 303 305 307 303 300 300 297 287 282 285 288 287 287 288 287 287 290 293 292 292 296 297 296 296 299 300 298 296 297 301 298 296 296 297 300 301 297 291 289 290 291 288 285 284 287 288 290 292 294 250 220 232 236 237 250 270 273 256 253 264 259 264
307 308 309 312 312 308 311 312 305 302 301 304 303 304 299 295 292 292 295 295 295 293 295 293 292 291 292 293 291 293 291 291 292 293 296 297 299 299 299 298 297 296 295 292 292 292 294 296 295 294 292 289 283 282 283 287 289 291 292 292 292 300 288 227 225 235 240 240 241 245 254 253 255 254
318 314 310 315 312 312 308 308 307 307 307 304 303 300 296 299 299 295 292 292 293 292 293 291 290 290 292 294 293 291 290 291 295 300 299 299 298 295 292 292 290 289 290 292 294 294 297 297 294 292 288 286 290 286 285 288 288 290 295 295 298 296 288 292 281 239 230 232 235 234 236 240 235 241
305 306 305 306 306 306 308 306 306 308 308 305 301 298 299 300 298 299 300 303 303 305 300 299 303 300 297 295 297 297 298 304 301 293 291 289 287 288 290 293 294 293 291 295 296 294 293 292 295 295 289 285 285 285 287 285 288 292 291 293 294 292 294 294 289 286 280 278 230 221 231 231 236 241